Longville, MN

1:38 PM CST on November 18, 2017 (GMT -0600)
Longville Municipal

Weather History for KXVG - January, 2013

Change the Weather History Date:

Wednesday, January 16, 2013

  Actual Average (KPWC) Record (KPWC)
Temperature  
Mean Temperature 13 °F -  
Max Temperature 26 °F 17 °F 37 °F (1999)
Min Temperature 0 °F 0 °F -36 °F (2009)
Degree Days  
Heating Degree Days 52    
Moisture  
Dew Point 6 °F    
Average Humidity 71    
Maximum Humidity 93    
Minimum Humidity 38    
Precipitation  
Precipitation 0.00 in - - ()
Sea Level Pressure  
Sea Level Pressure 29.82 in    
Wind  
Wind Speed 9 mph (WNW)    
Max Wind Speed 13 mph    
Max Gust Speed 23 mph    
Visibility 9 miles    
Events Snow    
Averages and records for this station are not official NWS values.
T = Trace of Precipitation, MM = Missing Value Source: NWS Daily Summary

Daily Weather History Graph

Daily Weather History Graph

Search for Another Location

Airport or City:

Trip Planner

Search our weather history database for the weather conditions in past years. The results will help you decide how hot, cold, wet, or windy it might be!

Date:

Astronomy

Jan. 16, 2013 Rise Set
Actual Time 7:57 AM CST 4:56 PM CST
Civil Twilight 7:23 AM CST 5:30 PM CST
Nautical Twilight 6:45 AM CST 6:08 PM CST
Astronomical Twilight 6:09 AM CST 6:44 PM CST
Moon 10:09 AM CST (1/16) 11:15 PM CST (1/16)
Length of Visible Light 10h 07m
Length of Day
8h 59m
Waxing Crescent, 28% of the Moon is Illuminated
Jan 16
Waxing Crescent
Jan 18
First Quarter
Jan 26
Full
Feb 3
Last Quarter
Feb 10
New

Hourly Weather History & Observations

Time (CST) Temp. Windchill Dew Point Humidity Pressure Visibility Wind Dir Wind Speed Gust Speed Precip Events Conditions
12:16 AM 21.2 °F 9.5 °F 15.8 °F 80% 29.54 in 3.0 mi South 11.5 mph 19.6 mph N/A Snow Light Snow
12:36 AM 21.2 °F 8.9 °F 17.6 °F 86% 29.52 in 10.0 mi SSW 12.7 mph 23.0 mph N/A Snow Light Snow
12:56 AM 21.2 °F 10.9 °F 17.6 °F 86% 29.52 in 7.0 mi SSW 9.2 mph 19.6 mph N/A Snow Light Snow
1:16 AM 21.2 °F 8.9 °F 17.6 °F 86% 29.51 in 10.0 mi SSW 12.7 mph 19.6 mph N/A   Overcast
1:36 AM 21.2 °F 9.5 °F 19.4 °F 93% 29.51 in 3.0 mi SSW 11.5 mph 20.7 mph N/A Snow Light Snow
2:36 AM 23.0 °F 12.4 °F 21.2 °F 93% 29.52 in 2.5 mi SW 10.4 mph - N/A Snow Light Snow
2:56 AM 23.0 °F 12.4 °F 21.2 °F 93% 29.52 in 5.0 mi SW 10.4 mph 16.1 mph N/A Snow Light Snow
3:16 AM 24.8 °F 15.3 °F 21.2 °F 86% 29.51 in 7.0 mi WSW 9.2 mph 17.3 mph N/A   Overcast
3:36 AM 24.8 °F 16.1 °F 21.2 °F 86% 29.51 in 7.0 mi SW 8.1 mph - N/A   Overcast
3:56 AM 24.8 °F 15.3 °F 21.2 °F 86% 29.51 in 7.0 mi SW 9.2 mph - N/A Snow Light Snow
4:16 AM 24.8 °F 17.9 °F 23.0 °F 93% 29.51 in 10.0 mi WSW 5.8 mph - N/A   Overcast
4:36 AM 26.6 °F 17.5 °F 24.8 °F 93% 29.52 in 10.0 mi West 9.2 mph - N/A   Overcast
4:56 AM 26.6 °F 19.1 °F 24.8 °F 93% 29.52 in 10.0 mi West 6.9 mph - N/A   Overcast
5:16 AM 26.6 °F 21.2 °F 24.8 °F 93% 29.53 in 10.0 mi West 4.6 mph - N/A   Overcast
5:36 AM 26.6 °F 18.2 °F 24.8 °F 93% 29.53 in 10.0 mi WNW 8.1 mph - N/A   Overcast
5:56 AM 26.6 °F 15.7 °F 24.8 °F 93% 29.54 in 10.0 mi WNW 12.7 mph 19.6 mph N/A   Overcast
6:16 AM 26.6 °F 16.8 °F 23.0 °F 86% 29.55 in 10.0 mi WNW 10.4 mph 18.4 mph N/A   Overcast
6:36 AM 24.8 °F 15.3 °F 21.2 °F 86% 29.56 in 10.0 mi NW 9.2 mph 17.3 mph N/A   Overcast
6:56 AM 24.8 °F 16.1 °F 21.2 °F 86% 29.58 in 10.0 mi WNW 8.1 mph 19.6 mph N/A   Overcast
7:16 AM 24.8 °F 16.1 °F 19.4 °F 80% 29.60 in 10.0 mi NW 8.1 mph - N/A   Overcast
7:36 AM 24.8 °F 16.1 °F 19.4 °F 80% 29.62 in 10.0 mi NW 8.1 mph - N/A   Overcast
7:56 AM 23.0 °F 13.1 °F 19.4 °F 86% 29.63 in 10.0 mi WNW 9.2 mph - N/A   Overcast
8:16 AM 21.2 °F 10.9 °F 17.6 °F 86% 29.64 in 10.0 mi WNW 9.2 mph 17.3 mph N/A   Overcast
8:36 AM 21.2 °F 12.6 °F 15.8 °F 80% 29.64 in 10.0 mi WNW 6.9 mph - N/A   Mostly Cloudy
8:56 AM 19.4 °F 9.5 °F 15.8 °F 86% 29.66 in 10.0 mi NW 8.1 mph - N/A   Mostly Cloudy
9:16 AM 19.4 °F 7.2 °F 15.8 °F 86% 29.69 in 10.0 mi WNW 11.5 mph - N/A   Mostly Cloudy
9:36 AM 19.4 °F 7.9 °F 14.0 °F 80% 29.70 in 10.0 mi WNW 10.4 mph - N/A   Overcast
9:56 AM 17.6 °F 5.7 °F 12.2 °F 79% 29.72 in 10.0 mi WNW 10.4 mph 17.3 mph N/A   Scattered Clouds
10:16 AM 17.6 °F 5.7 °F 12.2 °F 79% 29.74 in 10.0 mi WNW 10.4 mph 19.6 mph N/A Snow Light Snow
10:36 AM 17.6 °F 6.4 °F 12.2 °F 79% 29.75 in 10.0 mi WNW 9.2 mph - N/A   Scattered Clouds
10:56 AM 17.6 °F 6.4 °F 10.4 °F 73% 29.77 in 10.0 mi NW 9.2 mph 16.1 mph N/A   Mostly Cloudy
11:16 AM 15.8 °F 3.4 °F 8.6 °F 73% 29.77 in 10.0 mi WNW 10.4 mph 16.1 mph N/A   Scattered Clouds
11:36 AM 15.8 °F 5.1 °F 8.6 °F 73% 29.77 in 10.0 mi WNW 8.1 mph - N/A   Clear
11:56 AM 15.8 °F 5.1 °F 6.8 °F 68% 29.78 in 10.0 mi NW 8.1 mph - N/A   Clear
12:16 PM 15.8 °F 5.1 °F 3.2 °F 58% 29.79 in 10.0 mi NW 8.1 mph - N/A   Clear
12:36 PM 15.8 °F 2.1 °F 3.2 °F 58% 29.81 in 10.0 mi WNW 12.7 mph 16.1 mph N/A   Clear
12:56 PM 15.8 °F 2.1 °F 1.4 °F 53% 29.82 in 10.0 mi WNW 12.7 mph 18.4 mph N/A   Clear
1:16 PM 15.8 °F 7.2 °F 1.4 °F 53% 29.83 in 10.0 mi WNW 5.8 mph - N/A   Clear
1:36 PM 17.6 °F 5.0 °F 1.4 °F 49% 29.85 in 10.0 mi WNW 11.5 mph 18.4 mph N/A   Clear
1:56 PM 17.6 °F 4.3 °F 1.4 °F 49% 29.85 in 10.0 mi WNW 12.7 mph 18.4 mph N/A   Clear
2:16 PM 17.6 °F 6.4 °F -4.0 °F 38% 29.87 in 10.0 mi WNW 9.2 mph 16.1 mph N/A   Clear
2:36 PM 17.6 °F 7.3 °F -2.2 °F 42% 29.89 in 10.0 mi NNW 8.1 mph - N/A   Clear
2:56 PM 15.8 °F 6.1 °F -2.2 °F 45% 29.90 in 10.0 mi NW 6.9 mph 16.1 mph N/A   Clear
3:16 PM 15.8 °F 4.2 °F -2.2 °F 45% 29.91 in 10.0 mi NNW 9.2 mph 18.4 mph N/A   Clear
3:36 PM 15.8 °F 3.4 °F -0.4 °F 49% 29.92 in 10.0 mi NW 10.4 mph - N/A   Clear
3:56 PM 14.0 °F 2.0 °F -2.2 °F 49% 29.94 in 10.0 mi WNW 9.2 mph 16.1 mph N/A   Clear
4:16 PM 12.2 °F 2.9 °F -2.2 °F 53% 29.97 in 10.0 mi NW 5.8 mph - N/A   Clear
4:36 PM 12.2 °F 4.3 °F -2.2 °F 53% 29.97 in 10.0 mi WNW 4.6 mph - N/A   Clear
4:56 PM 10.4 °F -0.4 °F -5.8 °F 48% 29.99 in 10.0 mi NW 6.9 mph - N/A   Clear
5:16 PM 8.6 °F -2.6 °F -7.6 °F 48% 30.01 in 10.0 mi NW 6.9 mph - N/A   Clear
5:36 PM 8.6 °F 0.1 °F -7.6 °F 48% 30.04 in 10.0 mi NW 4.6 mph - N/A   Clear
5:56 PM 6.8 °F -5.9 °F -5.8 °F 56% 30.06 in 10.0 mi NW 8.1 mph - N/A   Clear
6:16 PM 6.8 °F -3.5 °F -5.8 °F 56% 30.08 in 10.0 mi WNW 5.8 mph - N/A   Clear
6:36 PM 5.0 °F -8.1 °F -5.8 °F 61% 30.09 in 10.0 mi WNW 8.1 mph - N/A   Clear
6:56 PM 3.2 °F -9.1 °F -7.6 °F 61% 30.08 in 10.0 mi NW 6.9 mph - N/A   Clear
7:16 PM 3.2 °F -9.1 °F -7.6 °F 61% 30.08 in 10.0 mi NW 6.9 mph - N/A   Clear
7:36 PM 3.2 °F -7.8 °F -7.6 °F 61% 30.11 in 10.0 mi NW 5.8 mph - N/A   Clear
7:56 PM 3.2 °F -9.1 °F -7.6 °F 61% 30.11 in 10.0 mi WNW 6.9 mph - N/A   Clear
8:16 PM 3.2 °F -9.1 °F -7.6 °F 61% 30.12 in 10.0 mi NW 6.9 mph - N/A   Scattered Clouds
8:56 PM 1.4 °F -8.3 °F -9.4 °F 61% 30.12 in 10.0 mi WNW 4.6 mph - N/A   Clear
9:16 PM 1.4 °F -6.2 °F -7.6 °F 66% 30.13 in 10.0 mi NW 3.5 mph - N/A   Clear
9:36 PM -0.4 °F -10.4 °F -7.6 °F 72% 30.14 in 10.0 mi WNW 4.6 mph - N/A   Clear
9:56 PM -0.4 °F -10.4 °F -7.6 °F 72% 30.15 in 10.0 mi WNW 4.6 mph - N/A   Clear
10:16 PM -0.4 °F -12.0 °F -9.4 °F 66% 30.17 in 10.0 mi WNW 5.8 mph - N/A   Clear
10:36 PM -0.4 °F -10.4 °F -7.6 °F 72% 30.18 in 10.0 mi WNW 4.6 mph - N/A   Scattered Clouds
10:56 PM -0.4 °F -12.0 °F -9.4 °F 66% 30.20 in 10.0 mi NW 5.8 mph - N/A   Mostly Cloudy
11:16 PM -0.4 °F -13.4 °F -9.4 °F 66% 30.21 in 10.0 mi WNW 6.9 mph - N/A   Overcast
11:36 PM -0.4 °F -15.7 °F -9.4 °F 66% 30.22 in 10.0 mi WNW 9.2 mph - N/A   Overcast
11:56 PM -0.4 °F -14.7 °F -9.4 °F 66% 30.21 in 10.0 mi WNW 8.1 mph - N/A   Overcast